CAPE
0 0 0 0 0 0 0 0 0 0 0 0 0 0 0 0 0 0 0 0 0 0 0 0 0 0 0 0 0 0 0 0 0 0 0 0 0 0 0 0 0 0 0 0 0
0 0 0 0 0 0 0 0 0 0 0 0 0 0 0 0 0 0 0 0 0 0 0 0 0 0 0 0 0 0 0 0 0 0 0 0 0 0 0 0 0 0 0 0 0
0 0 0 0 0 0 0 0 0 0 0 0 0 0 0 0 0 0 0 0 0 0 0 0 0 0 0 0 0 0 0 0 0 0 0 0 0 0 0 0 0 0 0 0 0
0 0 0 0 0 0 0 0 0 0 0 0 0 0 0 0 0 0 0 0 0 0 0 0 0 0 0 0 0 0 0 0 0 0 0 0 0 0 0 0 0 0 0 0 0
0 0 0 0 0 0 0 0 0 0 0 0 0 0 0 0 0 0 0 0 0 0 0 0 0 0 0 0 0 0 0 0 0 0 0 0 0 0 0 0 0 0 0 0 0
0 0 0 0 0 0 0 0 0 0 0 0 0 0 0 0 0 0 0 0 0 0 0 0 0 0 0 0 0 0 0 0 0 0 0 0 0 0 0 0 0 0 0 0 0
0 0 0 0 0 0 0 0 0 0 0 0 0 0 0 0 0 0 0 0 0 0 0 0 0 0 0 0 0 0 0 0 0 0 0 0 0 0 0 0 0 0 0 0 0
0 0 0 0 0 0 0 0 0 0 0 0 0 0 0 0 0 0 0 0 0 0 0 0 0 0 0 0 0 0 0 0 0 0 0 0 0 0 0 0 0 0 0 0 0
0 0 0 0 0 0 0 0 0 0 0 0 0 0 0 0 0 0 0 0 0 0 0 0 0 0 0 0 0 0 0 0 0 0 0 0 0 0 0 0 0 0 0 0 0
0 0 0 0 0 0 0 0 0 0 0 0 0 0 0 0 0 0 0 0 0 0 0 0 0 0 0 0 0 0 0 0 0 0 0 0 0 0 0 0 0 0 0 0 0
0 0 0 0 0 0 0 0 0 0 0 0 0 0 0 0 0 0 0 0 0 0 0 0 0 0 0 0 0 0 0 0 0 0 0 0 0 0 0 0 0 0 0 0 0
1 0 0 0 0 0 0 0 0 0 0 0 0 0 0 0 0 0 0 0 0 0 0 0 0 0 0 0 0 0 0 0 0 0 0 0 0 0 0 0 0 0 0 0 0
0 0 0 0 0 0 0 0 0 0 0 0 0 0 0 0 0 0 0 0 0 0 0 0 0 0 0 0 0 0 0 0 0 0 0 0 0 0 0 0 0 0 0 0 0
0 0 0 0 0 0 0 0 0 0 0 0 0 0 0 0 0 0 0 0 0 0 0 0 0 0 0 0 0 0 0 0 0 0 0 0 0 0 0 0 0 0 0 0 0
0 0 0 0 0 0 0 0 0 0 0 0 0 0 0 0 0 0 0 0 0 0 0 0 0 0 0 0 0 0 0 0 0 0 0 0 0 0 0 0 0 0 0 0 0
0 0 0 0 0 0 0 0 0 0 0 0 0 0 0 0 0 0 0 0 0 0 0 0 0 0 0 0 0 0 0 0 0 0 0 0 0 0 0 0 0 0 0 0 0
0 0 0 0 0 0 0 0 0 2 0 0 0 0 0 0 0 0 0 0 0 0 0 0 0 0 0 0 0 0 0 0 0 0 0 0 0 0 0 0 0 0 0 0 0
0 0 0 0 0 0 0 5 2 1 0 0 0 0 0 0 0 0 0 0 0 0 0 0 0 0 0 0 0 0 0 0 0 0 0 0 0 0 0 0 0 0 0 0 0
0 0 0 0 0 0 2 0 0 0 0 0 0 0 0 0 0 0 0 0 0 0 0 1 0 0 0 0 0 0 0 0 0 0 0 0 0 0 0 0 0 0 0 0 0
0 0 0 0 0 1 0 0 0 0 0 4 8 3 0 1 5 1 0 0 0 0 0 0 0 0 0 0 0 0 0 0 0 0 0 0 0 0 0 0 0 0 0 0 0
0 0 0 0 7 17 0 0 0 0 1 12 6 8 5 21 20 19 0 0 0 0 0 0 1 0 0 0 0 0 0 0 0 0 0 3 0 0 0 0 0 0 0 0 0
0 0 0 16 0 5 2 0 0 0 0 1 7 9 4 14 4 11 0 5 0 0 0 0 17 4 0 0 0 0 0 0 0 0 0 0 0 0 0 0 0 0 0 0 0
0 0 0 15 0 0 0 0 0 7 7 0 0 1 6 3 11 1 2 0 3 5 11 15 23 36 7 0 0 0 0 0 0 0 0 1 1 0 0 0 0 0 0 0 0
0 0 0 34 8 0 0 0 0 0 6 10 0 0 8 0 1 2 0 0 0 2 16 8 7 3 0 0 1 8 14 2 0 3 4 2 0 1 0 0 0 0 0 0 0
0 0 0 0 0 10 4 0 0 0 0 0 0 2 2 4 3 3 4 0 0 1 0 5 2 2 1 5 4 5 0 0 0 0 0 0 0 0 0 0 0 0 0 0 0
0 0 0 0 0 0 0 0 0 0 4 0 0 0 0 0 0 0 1 0 0 0 1 12 2 3 0 0 0 0 0 0 0 0 0 0 0 0 0 0 0 0 0 0 0
0 0 0 0 0 0 0 0 0 0 0 0 0 0 0 0 0 0 0 0 0 0 0 6 8 1 0 0 0 1 0 0 0 0 0 0 0 0 0 0 0 0 0 0 0
CIN
0 0 0 0 0 0 0 0 0 0 0 0 0 0 0 0 0 0 0 0 0 0 0 0 0 0 0 0 0 0 0 0 0 0 0 0 0 0 0 0 0 0 0 0 0
0 0 0 0 0 0 0 0 0 0 0 0 0 0 0 0 0 0 0 0 0 0 0 0 0 0 0 0 0 0 0 0 0 0 0 0 0 0 0 0 0 0 0 0 0
0 0 0 0 0 0 0 0 0 0 0 0 0 0 0 0 0 0 0 0 0 0 0 0 0 0 0 0 0 0 0 0 0 0 0 0 0 0 0 0 0 0 0 0 0
0 0 0 0 0 0 0 0 0 0 0 0 0 0 0 0 0 0 0 0 0 0 0 0 0 0 0 0 0 0 0 0 0 0 0 0 0 0 0 0 0 0 0 0 0
0 0 0 0 0 0 0 0 0 0 0 0 0 0 0 0 0 0 0 0 0 0 0 0 0 0 0 0 0 0 0 0 0 0 0 0 0 0 0 0 0 0 0 0 0
0 0 0 0 0 0 0 0 0 0 0 0 0 0 0 0 0 0 0 0 0 0 0 0 0 0 0 0 0 0 0 0 0 0 0 0 0 0 0 0 0 0 0 0 0
0 0 0 0 0 0 0 0 0 0 0 0 0 0 0 0 0 0 0 0 0 0 0 0 0 0 0 0 0 0 0 0 0 0 0 0 0 0 0 0 0 0 0 0 0
0 0 0 0 0 0 0 0 0 0 0 0 0 0 0 0 0 0 0 0 0 0 0 0 0 0 0 0 0 0 0 0 0 0 0 0 0 0 0 0 0 0 0 0 0
0 0 0 0 0 0 0 0 0 0 0 0 0 0 0 0 0 0 0 0 0 0 0 0 0 0 0 0 0 0 0 0 0 0 0 0 0 0 0 0 0 0 0 0 0
0 0 0 0 0 0 0 0 0 0 0 0 0 0 0 0 0 0 0 0 0 0 0 0 0 0 0 0 0 0 0 0 0 0 0 0 0 0 0 0 0 0 0 0 0
0 0 0 0 0 0 0 0 0 0 0 0 0 0 0 0 0 0 0 0 0 0 0 0 0 0 0 0 0 0 0 0 0 0 0 0 0 0 0 0 0 0 0 0 0
-32 0 0 0 0 0 0 0 0 0 0 0 0 0 0 0 0 0 0 0 0 0 0 0 0 0 0 0 0 0 0 0 0 0 0 0 0 0 0 0 0 0 0 0 0
0 0 0 0 0 0 0 0 0 0 0 0 0 0 0 0 0 0 0 0 0 0 0 0 0 0 0 0 0 0 0 0 0 0 0 0 0 0 0 0 0 0 0 0 0
0 0 0 0 0 0 0 0 0 0 0 0 0 0 0 0 0 0 0 0 0 0 0 0 0 0 0 0 0 0 0 0 0 0 0 0 0 0 0 0 0 0 0 0 0
0 0 0 0 0 0 0 0 0 0 0 0 0 0 0 0 0 0 0 0 0 0 0 0 0 0 0 0 0 0 0 0 0 0 0 0 0 0 0 0 0 0 0 0 0
0 0 0 0 0 0 0 0 0 0 0 0 0 0 0 0 0 0 0 0 0 0 0 0 0 0 0 0 0 0 0 0 0 0 0 0 0 0 0 0 0 0 0 0 0
0 0 0 0 0 0 0 0 0 -1 0 0 0 0 0 0 0 0 0 0 0 0 0 0 0 0 0 0 0 0 0 0 0 0 0 0 0 0 0 0 0 0 0 0 0
0 0 0 0 0 0 0 -4 0 -4 0 0 0 0 0 0 0 0 0 0 0 0 0 0 0 0 0 0 0 0 0 0 -2 0 0 0 0 0 0 0 0 0 0 0 0
0 0 0 0 0 0 -1 0 0 -2 0 0 0 0 0 0 0 0 0 0 0 0 0 -2 0 0 0 0 0 0 0 0 0 0 0 0 0 0 0 0 0 0 0 0 0
0 0 0 0 0 -1 0 0 0 0 0 -11 -2 -5 0 -1 -4 -1 -1 0 0 0 0 0 0 0 0 0 0 0 0 0 0 0 0 0 0 0 0 0 0 0 0 0 0
0 0 0 0 -2 -1 0 0 0 0 -1 -2 -1 -1 -1 0 -2 -4 0 0 0 -2 0 -10 0 0 0 0 0 0 0 0 0 0 -6 -13 0 0 0 0 0 0 0 0 0
0 0 0 -2 0 0 0 0 0 0 0 -1 -4 -2 0 -1 0 0 0 -1 0 0 0 0 -1 -1 0 0 0 0 0 0 -2 -1 0 0 -9 0 0 0 0 0 0 0 0
0 0 -1 -5 0 0 0 0 0 0 -1 0 0 -1 -3 -1 -1 -2 -1 0 -5 -2 -4 -5 -2 -5 -19 0 0 0 -4 0 0 0 0 0 -3 0 0 0 0 0 0 0 0
0 0 0 -3 -3 0 0 0 0 0 -1 -2 0 0 -1 0 0 0 0 -4 -4 -7 -12 -6 0 0 0 0 -1 -2 -7 -29 0 -7 -8 -17 -9 0 0 0 0 0 0 0 0
0 0 0 -1 0 -1 -1 0 0 0 0 0 0 -1 0 0 -1 0 -1 0 0 -5 0 -4 -2 0 0 0 0 0 0 0 0 0 -1 0 0 0 0 0 0 0 0 0 0
0 0 0 0 0 0 0 0 0 0 0 0 0 0 0 0 0 0 -1 0 0 -2 -2 -4 -1 0 0 0 0 -6 0 0 0 0 0 0 0 0 0 0 0 0 0 0 0
0 0 0 0 0 0 0 0 0 0 0 0 0 0 0 0 0 0 0 0 0 0 0 -2 0 0 0 0 -1 -2 0 0 0 0 0 0 0 0 0 0 0 0 0 0 0
Wind_Speed
19 20 20 21 21 21 21 22 22 23 23 24 25 25 26 27 22 16 12 12 10 7 10 10 12 12 13 14 14 13 15 16 17 16 17 15 17 16 17 19 18 15 15 21 20
20 21 21 22 22 23 23 24 24 25 26 26 26 27 27 28 21 21 14 11 9 7 8 7 10 11 14 14 14 13 16 17 14 14 17 17 17 20 20 18 17 16 12 12 19
21 22 22 23 24 25 25 26 27 27 27 27 27 28 28 24 25 17 13 9 8 7 10 11 11 12 15 15 14 14 15 17 17 15 18 19 17 16 16 12 19 11 19 19 17
22 23 24 25 26 26 27 28 28 28 28 27 27 27 27 19 25 15 13 9 7 10 10 11 12 15 17 16 16 17 14 15 19 19 21 22 21 14 9 16 14 11 11 17 16
23 24 24 25 26 27 29 29 30 30 29 27 25 25 21 21 20 18 14 11 8 9 9 11 14 16 18 18 19 18 21 19 19 21 22 25 15 16 18 14 14 11 13 13 14
22 23 24 26 27 28 30 31 32 32 30 26 23 22 20 25 19 15 13 10 11 9 11 12 17 17 22 22 21 25 26 27 26 24 24 25 17 23 19 24 20 21 14 17 13
22 23 25 26 28 30 32 33 33 33 30 25 19 19 22 23 20 17 16 17 15 13 17 17 18 18 20 25 23 28 35 35 27 29 25 23 25 19 24 26 27 25 21 24 21
23 23 25 27 29 31 33 33 31 28 27 21 16 19 26 20 18 18 17 19 17 17 18 18 16 20 22 24 27 31 30 36 31 25 27 22 22 32 34 31 35 39 34 25 36
23 24 26 28 30 32 33 31 23 24 20 16 20 21 28 18 21 19 17 18 15 16 18 16 17 21 22 25 31 27 35 33 38 28 28 25 33 35 35 41 51 50 49 47 45
23 25 26 28 30 33 33 24 21 21 21 20 20 23 21 24 20 18 17 13 18 15 19 19 21 23 24 24 30 34 34 33 37 34 36 44 33 36 44 48 51 49 47 41 37
24 25 26 28 30 32 29 24 26 26 24 26 29 30 29 24 21 22 19 17 19 21 26 23 25 25 26 24 27 36 37 39 38 39 47 50 54 46 43 40 48 45 39 34 30
23 24 25 27 29 29 25 25 26 26 36 29 30 29 28 25 30 23 17 22 24 29 24 27 31 28 31 31 32 35 41 43 44 38 37 46 54 54 40 27 34 37 33 28 24
23 23 24 26 28 24 25 25 23 25 33 35 29 29 28 24 30 28 20 23 25 29 28 32 34 31 29 33 37 36 39 43 46 45 42 45 45 33 31 36 33 29 22 19 17
20 21 23 25 24 24 25 23 22 25 35 33 26 22 20 18 22 19 17 20 22 29 27 32 29 29 30 32 31 40 34 38 42 41 43 37 53 44 36 33 30 21 15 12 18
19 20 20 21 23 25 23 20 20 24 37 23 20 16 17 19 18 19 16 18 24 25 24 30 29 28 30 31 28 36 33 34 37 41 46 38 43 40 34 29 18 19 15 18 23
18 18 16 19 20 20 17 18 21 27 31 23 19 20 20 21 22 20 20 19 20 26 28 33 28 28 29 28 29 31 37 38 38 39 48 42 37 38 32 23 17 17 18 21 23
18 17 16 15 19 15 15 20 30 35 24 26 25 23 24 24 23 23 25 26 29 35 38 34 34 32 28 34 31 31 37 48 48 43 49 34 41 39 29 23 25 21 21 23 28
17 17 16 16 13 14 18 25 38 31 30 23 24 25 31 28 29 30 32 39 32 34 42 46 54 34 28 32 37 34 34 41 52 55 57 49 55 44 33 27 28 30 32 33 31
16 19 20 19 15 16 23 35 36 32 31 32 34 41 42 34 32 31 35 43 38 30 40 46 52 36 34 33 31 34 39 36 45 47 57 56 53 44 37 35 32 29 26 26 29
21 23 23 21 15 17 27 39 35 27 28 29 38 34 42 39 40 39 37 29 30 27 26 35 51 35 31 30 31 33 34 44 41 54 59 54 55 49 34 31 29 29 31 32 32
23 29 25 15 14 23 35 37 35 30 31 32 35 37 37 37 35 35 34 36 34 34 30 33 37 47 41 43 50 42 42 40 43 44 52 54 52 41 38 35 35 34 34 34 35
24 32 20 11 25 28 37 32 30 33 26 30 32 35 38 38 41 41 42 36 33 36 43 37 40 50 55 46 37 38 40 41 49 50 47 52 58 31 30 28 29 31 35 35 36
24 25 18 15 33 32 29 32 31 32 31 30 32 28 28 34 42 37 36 28 31 34 36 33 37 47 45 40 32 35 37 39 41 45 55 59 49 22 20 23 27 32 33 34 37
23 27 25 24 27 31 34 36 35 28 30 27 29 28 32 36 34 40 40 33 31 33 30 31 40 49 60 54 51 52 46 38 40 48 49 46 47 39 39 44 41 40 39 38 38
22 27 24 29 32 30 28 31 32 32 28 27 31 32 34 38 36 37 37 36 34 33 32 32 48 48 51 49 50 53 53 54 55 53 57 60 59 58 58 53 46 42 41 40 40
25 26 23 28 27 29 30 37 39 37 34 35 37 36 35 39 39 48 42 41 44 39 41 37 52 52 58 51 48 51 52 54 55 57 59 59 62 50 43 42 41 42 42 42 42
20 19 23 27 28 29 32 33 32 26 28 28 29 34 36 34 29 31 32 35 35 40 42 43 48 52 63 54 57 62 55 54 55 53 54 61 55 41 41 42 42 42 43 43 42
Wind_Direction
336 337 338 336 333 330 324 320 316 314 313 312 310 308 310 313 340 0 2 6 17 58 25 24 10 7 3 356 357 0 345 340 344 348 351 357 348 350 346 340 339 340 336 329 335
329 327 326 325 323 320 318 317 315 315 315 315 316 317 320 323 343 336 356 6 21 63 18 13 355 357 346 345 346 341 334 335 344 344 342 343 339 335 335 335 332 334 331 331 331
320 321 320 319 319 318 317 316 315 315 317 318 318 319 322 337 329 343 359 17 33 28 357 351 352 345 333 335 334 334 324 329 328 327 331 332 333 337 332 327 331 332 335 335 330
316 316 317 317 317 317 317 315 315 316 318 320 321 322 324 340 319 350 353 11 15 351 350 343 339 330 327 325 329 324 319 319 325 324 324 324 328 321 284 255 310 299 312 326 324
314 316 317 319 319 318 316 316 314 314 316 319 323 325 331 324 319 330 336 344 348 343 333 330 325 325 321 325 324 314 318 317 315 317 315 316 294 258 254 287 272 292 316 315 316
316 318 319 320 319 317 316 314 313 312 313 317 321 324 324 312 327 340 345 346 336 333 327 325 321 320 319 318 315 320 316 315 316 313 310 309 287 319 320 323 324 323 314 320 316
313 315 316 316 316 315 313 311 311 309 311 316 322 323 314 310 321 324 325 320 319 317 315 314 317 317 323 319 319 317 311 311 313 313 312 314 309 303 316 319 318 319 321 320 317
312 315 316 316 315 314 313 313 317 319 319 323 326 321 308 321 324 318 317 317 319 315 313 317 316 312 312 318 316 313 313 309 315 322 320 315 296 312 314 317 314 310 306 312 263
311 313 315 316 316 316 316 318 327 330 336 339 323 315 308 327 319 323 321 317 321 319 320 323 315 310 314 310 309 312 308 310 310 319 316 310 311 312 313 311 288 291 286 292 298
310 312 314 315 315 316 316 326 327 327 327 329 325 314 313 314 323 327 326 326 318 319 316 313 310 305 307 304 302 308 308 310 309 315 308 303 304 310 306 301 291 283 286 303 306
308 311 313 315 316 317 322 323 316 313 315 308 306 303 305 313 318 316 320 318 315 307 300 303 298 297 300 297 299 305 304 305 308 311 304 301 298 308 309 309 289 288 303 311 314
307 311 313 316 317 319 323 317 317 315 305 307 303 300 302 306 301 308 315 305 301 297 301 301 293 298 302 303 302 302 302 303 306 311 310 306 297 298 310 318 314 308 310 314 324
305 309 312 314 316 320 318 318 324 323 308 306 306 304 304 303 297 299 300 302 300 294 293 291 298 304 300 300 299 299 300 303 303 307 307 306 306 316 320 318 318 317 320 327 334
304 308 310 312 312 315 314 323 326 326 305 307 309 315 323 321 312 323 318 306 302 299 300 298 306 301 300 300 303 299 306 304 305 308 305 313 298 307 315 317 321 328 335 347 337
304 308 311 313 311 310 315 326 330 324 302 315 316 338 333 321 327 328 331 317 304 303 304 302 305 304 301 303 307 302 309 307 306 304 303 307 304 310 317 313 324 335 342 332 332
310 311 314 314 315 317 325 328 323 304 299 310 318 321 320 319 316 321 321 323 319 307 302 299 306 303 303 306 305 306 304 304 304 302 294 302 302 307 313 313 319 333 332 335 336
312 313 312 320 311 325 330 320 300 288 308 306 310 314 312 312 312 313 311 307 306 304 301 303 299 302 302 301 303 301 301 299 296 294 291 305 299 299 308 313 312 319 325 326 327
313 314 313 314 317 322 316 303 287 294 292 312 313 310 303 308 306 307 304 299 304 303 300 297 293 300 300 298 298 297 294 290 292 291 291 298 288 290 297 302 307 310 310 312 318
312 307 307 306 308 311 300 285 289 294 296 293 296 295 296 302 301 305 302 299 302 301 297 299 292 306 299 301 300 298 290 296 291 290 290 290 290 292 292 295 300 304 312 316 319
299 299 298 301 296 298 289 285 289 297 300 299 291 295 293 297 298 301 300 307 309 311 312 304 299 304 305 306 300 297 301 292 292 291 287 287 287 287 292 292 297 302 307 312 316
297 294 296 302 293 285 280 286 291 292 294 295 293 294 296 298 297 298 298 304 306 307 310 307 299 295 301 297 296 295 290 290 292 288 290 291 286 294 290 291 293 298 305 310 313
291 286 301 285 281 286 281 290 295 291 303 294 296 293 293 296 296 295 295 299 310 308 302 302 300 293 293 299 300 296 291 290 286 290 287 286 285 302 300 299 300 302 306 310 313
286 290 300 286 281 279 288 290 291 290 292 298 296 300 303 298 297 298 300 309 311 309 306 310 303 300 302 302 306 299 298 293 291 291 285 285 291 307 304 302 305 308 309 311 313
287 284 286 279 286 284 283 286 286 297 295 296 298 301 300 298 299 299 300 308 311 311 310 308 298 293 291 293 299 295 295 296 295 291 292 288 292 295 293 295 301 300 304 305 308
287 283 287 282 278 281 285 290 290 292 298 300 298 296 298 297 300 298 302 304 307 309 308 304 295 296 295 295 295 292 290 289 287 289 288 290 290 291 293 294 295 298 298 300 302
283 285 287 286 287 282 280 286 285 287 291 293 292 296 298 295 296 296 300 301 300 304 302 303 296 297 293 295 294 292 290 289 289 289 288 289 289 295 295 297 296 298 299 298 300
291 295 290 286 285 283 283 285 291 295 299 300 301 300 299 300 304 306 305 304 301 301 301 300 299 298 292 295 295 289 289 290 290 289 290 289 293 297 295 296 297 299 301 300 300